Location: Zagreb
(45.8000°N, 16.0000°E)
Time: 01:24:58
(UTC+01:00)

NO-84 - Pass Details

Date: 06 November 2020
Orbit: 323 x 458 km, 55.0° (Epoch: 25 November)

Event Time Altitude Azimuth Distance (km) Brightness Sun altitude
Exits shadow 05:38:35 15° 317° (NW) 1,190 ? -11.7°
Maximum altitude 05:41:04 48° 30° (NNE) 511 ? -11.2°
Drops below altitude 10° 05:44:02 10° 107° (ESE) 1,365 ? -10.7°
Sets 05:46:02 0° 113° (ESE) 2,184 ? -10.4°
